Location: Newark
(52.8300°N, 8.0000°E)
Time: 00:32:56
(UTC+00:00)

STARLINK-1128 - Pass Details

Date: 31 January 2020
Orbit: 554 x 555 km, 53.0° (Epoch: 23 February)

Event Time Altitude Azimuth Distance (km) Brightness Sun altitude
Rises 17:44:08 0° 286° (WNW) 2,740 8.4 -14.2°
Reaches altitude 10° 17:46:34 10° 276° (W) 1,842 7.6 -14.5°
Maximum altitude 17:50:12 29° 215° (SW) 1,030 5.5 -15.1°
Drops below altitude 10° 17:53:50 10° 155° (SSE) 1,835 6.1 -15.6°
Enters shadow 17:55:17 - 147° (SSE) 2,353 6.6 -15.8°
